Simultaneous Nadir Overpasses (SNOs) Predictions

Prediction of SNOs between GOES-17 and METOP-C Satellite Orbit:

Table of predicted SNOs for the next 14.0 days since TLE Epoch: 12/14/2024
Index Date Time (GOES-17) GOES-17 Lat,Lon METOP-C Lat,Lon Distance(km) Time Diff (sec)
1 12/14/2024 04:42:52 0.02,-104.67 -0.62,-107.49 322.08 80
2 12/15/2024 04:19:33 0.01,-104.66 0.49,-102.50 246.86 80
3 12/16/2024 16:38:25 0.01,-104.71 0.51,-107.06 267.94 80
4 12/17/2024 16:20:25 0.02,-104.71 -0.55,-102.05 301.90 80
5 12/19/2024 04:39:24 -0.03,-104.67 -0.49,-106.64 225.36 80
6 12/20/2024 04:16:04 -0.04,-104.67 0.64,-101.65 344.08 80
7 12/21/2024 16:34:57 0.04,-104.72 0.35,-106.22 170.58 80
8 12/22/2024 16:16:56 0.04,-104.72 -0.72,-101.21 399.61 80
9 12/24/2024 04:35:56 -0.04,-104.69 -0.30,-105.80 126.58 80
10 12/25/2024 04:12:36 -0.04,-104.70 0.84,-100.81 442.96 80
11 12/26/2024 16:31:27 0.04,-104.74 0.19,-105.37 72.31 80
12 12/27/2024 16:13:28 0.04,-104.74 -0.95,-100.38 497.68 80
